MPEC 2007-W67 : COMET C/2007 D1 (LINEAR)

The following Minor Planet Electronic Circular may be linked-to from your own Web pages, but must not otherwise be redistributed electronically.


Read MPEC 2007-W66 Read MPEC 2007-W68


M.P.E.C. 2007-W67                                Issued 2007 Nov. 26, 15:40 UT

     The Minor Planet Electronic Circulars contain information on unusual
         minor planets and routine data on comets.  They are published
   on behalf of Commission 20 of the International Astronomical Union by the
          Minor Planet Center, Smithsonian Astrophysical Observatory,
                          Cambridge, MA 02138, U.S.A.

             Prepared using the Tamkin Foundation Computer Network

                              MPC@CFA.HARVARD.EDU
          URL http://www.cfa.harvard.edu/iau/mpc.html  ISSN 1523-6714

                           COMET C/2007 D1 (LINEAR)

Observations:
    CK07D010  C2007 11 17.83123 11 04 50.47 -02 12 29.4                 EW067349
    CK07D010  C2007 11 17.83705 11 04 50.61 -02 12 29.9          17.9 T EW067349
    CK07D010  C2007 11 18.80159 11 05 09.19 -02 13 08.5                 EW067349
    CK07D010  C2007 11 18.80878 11 05 09.31 -02 13 08.9          17.8 T EW067349

Observer details:
349 Ageo.  Observer K. Kadota.  0.25-m f/5.0 reflector + CCD.

Orbital elements:
    C/2007 D1 (LINEAR)
Epoch 2007 June 29.0 TT = JDT 2454280.5
T 2007 June 19.36422 TT                                 MPC
q   8.7936045            (2000.0)            P               Q
z  -0.0002081      Peri.  340.15361     -0.88990673     -0.44449527
 +/-0.0000045      Node   171.09922     +0.45357852     -0.83853520
e   1.0018299      Incl.   41.44931     -0.04829635     +0.31509153
Residuals in seconds of arc
070217 704  1.8+  1.9-    070222 213  0.5+  0.1+    070316 246  0.3+  0.0
070217 704  1.7+  1.9+    070222 213  0.7+  0.2-    070316 246  0.2-  0.0
070217 704  2.0+  1.5+    070223 850  0.4-  0.4+    070316 246  0.5+  0.3+
070217 704  1.5+  2.0+    070223 850  0.4-  0.4+    070317 349  0.7-  0.5-
070217 246  0.4+  0.3+    070223 850  0.6-  0.0     070317 349  0.7-  0.6-
070217 246  0.2+  0.1-    070223 D88  0.0   0.6+    070317 349  1.0-  0.4-
070217 246  0.1+  0.7+    070223 D88  0.0   0.4+    070317 157  0.7+  0.2-
070217 246  0.4+  0.2+    070223 D88  0.6-  0.0     070317 232  1.2-  1.4-
070217 246  0.3+  0.3+    070224 372  0.1-  0.3-    070317 232  1.2-  0.5-
070217 246  0.6+  0.4+    070224 372  0.1+  0.0     070317 232  0.5-  0.7+
070217 246  0.7+  0.5+    070224 300  0.8+  0.8-    070318 213  0.0   0.2+
070217 246  0.8+  0.4+    070224 300  0.4+  0.3-    070318 213  0.2+  0.1+
070217 473 (2.3-  1.0+)   070224 300  0.4+  0.6-    070318 213  0.0   0.1+
070217 473  1.9-  0.8+    070224 349  0.0   0.1+    070322 415  0.5+  0.2-
070218 673  0.8+  0.1-    070224 349  0.1-  0.1+    070322 415  0.4+  0.4-
070218 673  1.3+  0.0     070226 349  0.7+  0.1+    070322 J70 (0.3+  2.1+)
070218 673  1.2+  0.0     070226 349  0.7+  0.2+    070322 J70  0.5+  1.6+
070218 703  0.6-  1.3-    070227 850  0.7-  0.4+    070324 585 (3.4+  0.1+)
070218 703 (2.8-  1.9-)   070227 850  0.1+  0.6-    070325 372  0.4+  1.0-
070218 703 (2.4-  0.0 )   070227 J70 (0.6-  3.5-)   070325 372  0.7+  0.9-
070218 734  0.4+  0.3-    070227 J70  1.8+  0.8-    070405 585  0.3+  0.4-
070218 734  0.2-  0.3+    070302 J70  0.8+  0.5-    070405 585  0.1+  0.1-
070218 734  0.3-  0.1+    070302 J70 (0.3-  3.7+)   070406 B30  0.8-  0.9-
070218 734  0.0   0.3+    070303 232  0.8+  1.6-    070406 213  0.3+  0.5-
070218 734  0.1+  0.0     070303 232  0.8-  0.3+    070406 B30  1.0-  1.0-
070218 682  0.4-  0.9+    070303 232  1.3-  1.0+    070406 213  0.2+  0.3-
070218 711  0.4+  0.0     070307 355  1.2-  0.1-    070406 B30  0.4+  1.3-
070218 704  0.5+  1.0-    070307 355  1.7-  0.1+    070406 213  0.1+  0.3-
070218 711  0.4+  0.2+    070307 355  1.4-  0.6-    070407 415  0.4+  0.1+
070218 711  0.4+  0.2+    070307 349  0.6-  1.7-    070407 415  1.0+  0.6+
070218 704  1.8+  0.0     070307 349  0.5-  1.6-    070409 215  0.3-  0.7+
070218 704  0.7+  1.1+    070308 850 (1.9+  2.3-)   070411 415  0.3+  0.3+
070218 704  0.2+  0.4+    070308 850  0.7+  0.9-    070411 415  0.3+  0.3+
070218 704 (1.4-  2.4+)   070308 850  0.7-  0.8-    070415 415  0.7+  0.5+
070218 682  0.6-  0.6+    070308 850  1.1-  0.8+    070415 415  0.7+  0.3-
070218 474  0.6+  0.2+    070308 850  1.3-  0.3+    070420 A79  0.9-  0.3-
070218 474  0.4+  0.2-    070309 372  0.2+  1.0+    070420 A79  1.0+  0.6-
070218 473  0.1-  0.7+    070309 372  1.0-  0.7+    070420 585  0.9+  0.3-
070218 473  1.1-  0.0     070309 B30 (6.0-  7.2-)   070420 A79  0.6-  1.5-
070218 473  0.2-  0.4-    070309 B30 (6.3-  7.1-)   070420 585 (0.4-  2.7+)
070218 246  0.1+  0.5+    070310 130  0.5-  0.4-    070423 213  0.1+  0.3+
070218 246  0.2+  0.6+    070310 130  0.4-  0.6+    070423 213  0.1+  0.2+
070218 246  0.4+  0.4+    070310 130  0.3+  0.2+    070423 213  0.1-  0.3+
070218 246  0.3+  0.8+    070310 130  0.1+  0.9-    070423 170  0.6-  0.7+
070218 246  0.1+  0.5+    070310 232  0.1-  0.6-    070423 170  0.8-  0.6+
070218 113  0.7-  0.1+    070310 232  0.1-  1.7-    070504 585  0.3-  0.7+
070218 113  1.6-  0.4-    070310 232  0.6+  1.5-    070504 585  0.4+  0.1+
070219 734  1.8-  0.2-    070311 372  0.1-  0.4-    070504 585  0.4+  0.2-
070219 734  0.1-  0.8-    070311 349  0.0   0.2-    070504 585  0.4+  0.2+
070219 734  0.4-  0.1+    070311 349  0.2+  0.3-    070504 585  0.1+  0.7+
070219 734  1.3-  0.5+    070311 349  0.3+  0.5-    070507 J70 (1.3-  7.2+)
070219 703  1.4-  0.7+    070311 A32  0.4-  1.1+    070508 J70 (1.6+  3.2-)
070219 703  1.6-  0.1+    070311 A32  0.8-  0.4-    070508 J70 (3.4+  2.1-)
070219 703  1.9-  0.3+    070311 A32  1.1-  0.8-    070510 473  1.1-  0.1+
070219 300  0.4+  0.4+    070312 850  0.0   0.2+    070511 415  0.5+  0.5+
070219 300  0.4+  0.3-    070312 850  0.1+  0.0     070511 415  0.3+  0.2+
070219 300  0.2+  0.8-    070312 850  0.1+  0.1-    070512 415  0.9-  0.3+
070219 300  0.4+  0.2+    070312 850  0.2+  0.1+    070512 415  0.2+  0.5-
070219 D35  0.2+  0.1+    070312 372  0.3-  0.5-    070516 673  0.0   0.0
070219 D35  0.1-  0.1+    070312 215  0.0   0.0     070516 673  0.2-  0.4+
070219 D35  0.0   0.4+    070312 215  0.1-  0.1-    070516 673  0.1+  0.3+
070220 204  0.3-  0.1+    070312 215  0.1+  0.2-    070516 673  0.1+  0.5+
070220 204  0.3+  0.4-    070313 D88  0.4-  0.3+    070526 415  0.6+  0.1-
070221 372 (4.0-  0.5-)   070313 D88  0.7-  0.4+    070606 415  0.0   0.4-
070221 349  0.2+  0.2-    070313 D88  0.6-  0.1+    070622 415  0.3-  1.4+
070221 372  0.1-  0.1-    070314 415  0.5+  0.0     070622 415  0.4+  0.7+
070221 349  0.2+  0.1-    070314 415  0.1+  0.2-    070623 415  1.3+  0.9-
070221 246  0.2+  0.6-    070314 A77  0.3-  0.3-    070623 415  0.2+  0.6-
070221 246  0.1+  0.5-    070314 A77 (0.8+  2.8+)   071117 349  0.3-  0.1-
070221 246  0.2+  0.4-    070314 A77  0.7+  0.8+    071117 349  0.2+  0.4-
070222 850  0.4-  0.2+    070316 246  0.1-  0.4+    071118 349  0.0   0.5+
070222 850  0.4-  0.2+    070316 246  0.1+  0.8+    071118 349  0.2-  0.4+
070222 850  0.0   0.2+    070316 246  0.1-  0.5+
070222 213  0.1+  0.3-    070316 246  0.1+  0.4+

     The "original" and "future" barycentric values of 1/a are +0.000054
and +0.000749 (+/- 0.000004) AU^-1, respectively.

Brian G. Marsden             (C) Copyright 2007 MPC           M.P.E.C. 2007-W67

Read MPEC 2007-W66 Read MPEC 2007-W68


Our Web policy. Index to the CBAT/MPC/ICQ pages.

MPC

Valid HTML 4.01!